Time,TemperatureF,DewpointF,PressureIn,WindDirection,WindDirectionDegrees,WindSpeedMPH,WindSpeedGustMPH,Humidity,HourlyPrecipIn,Conditions,Clouds,dailyrainin,SoftwareType,DateUTC
2013-07-30 11:43:00,65.0,-99.9,30.17,SSE,150,9.0,-999.0,-999,-99.99,,,-99.99,,2013-07-30 11:43:00,
2013-07-30 11:53:00,65.0,-99.9,30.17,SSE,150,9.0,-999.0,-999,-99.99,,,-99.99,,2013-07-30 11:53:00,
2013-07-30 12:00:00,65.0,-99.9,30.19,SSE,150,8.0,-999.0,-999,-99.99,,,-99.99,,2013-07-30 12:00:00,
2013-07-30 12:33:00,65.0,-99.9,30.19,SSE,150,8.0,-999.0,-999,-99.99,,,-99.99,,2013-07-30 12:33:00,
2013-07-30 12:42:00,65.0,-99.9,30.19,SSE,150,8.0,-999.0,-999,-99.99,,,-99.99,,2013-07-30 12:42:00,
2013-07-30 12:53:00,65.0,-99.9,30.19,SSE,150,8.0,-999.0,-999,-99.99,,,-99.99,,2013-07-30 12:53:00,
2013-07-30 13:00:00,67.0,-99.9,30.19,South,170,9.0,-999.0,-999,-99.99,,,-99.99,,2013-07-30 13:00:00,
2013-07-30 13:33:00,67.0,-99.9,30.19,South,170,9.0,-999.0,-999,-99.99,,,-99.99,,2013-07-30 13:33:00,
2013-07-30 13:43:00,67.0,-99.9,30.19,South,170,9.0,-999.0,-999,-99.99,,,-99.99,,2013-07-30 13:43:00,
2013-07-30 13:53:00,67.0,-99.9,30.19,South,170,9.0,-999.0,-999,-99.99,,,-99.99,,2013-07-30 13:53:00,
2013-07-30 14:00:00,71.0,-99.9,30.19,South,190,8.0,-999.0,-999,-99.99,,,-99.99,,2013-07-30 14:00:00,
2013-07-30 14:22:00,71.0,-99.9,30.19,South,190,8.0,-999.0,-999,-99.99,,,-99.99,,2013-07-30 14:22:00,
2013-07-30 14:33:00,71.0,-99.9,30.19,South,190,8.0,-999.0,-999,-99.99,,,-99.99,,2013-07-30 14:33:00,
2013-07-30 14:43:00,71.0,-99.9,30.19,South,190,8.0,-999.0,-999,-99.99,,,-99.99,,2013-07-30 14:43:00,
2013-07-30 14:53:00,71.0,-99.9,30.19,South,190,8.0,-999.0,-999,-99.99,,,-99.99,,2013-07-30 14:53:00,
2013-07-30 17:00:00,73.0,-99.9,30.16,South,170,9.0,-999.0,-999,-99.99,,,-99.99,,2013-07-30 17:00:00,
2013-07-30 17:32:00,73.0,-99.9,30.16,South,170,9.0,-999.0,-999,-99.99,,,-99.99,,2013-07-30 17:32:00,
2013-07-30 17:43:00,73.0,-99.9,30.16,South,170,9.0,-999.0,-999,-99.99,,,-99.99,,2013-07-30 17:43:00,
2013-07-30 17:54:00,73.0,-99.9,30.16,South,170,9.0,-999.0,-999,-99.99,,,-99.99,,2013-07-30 17:54:00,
2013-07-30 18:00:00,72.0,-99.9,30.16,SSW,200,8.0,-999.0,-999,-99.99,,,-99.99,,2013-07-30 18:00:00,
2013-07-30 18:33:00,72.0,-99.9,30.16,SSW,200,8.0,-999.0,-999,-99.99,,,-99.99,,2013-07-30 18:33:00,
2013-07-30 18:43:00,72.0,-99.9,30.16,SSW,200,8.0,-999.0,-999,-99.99,,,-99.99,,2013-07-30 18:43:00,
2013-07-30 18:52:00,72.0,-99.9,30.16,SSW,200,8.0,-999.0,-999,-99.99,,,-99.99,,2013-07-30 18:52:00,
2013-07-30 19:00:00,72.0,-99.9,30.14,South,180,8.0,-999.0,-999,-99.99,,,-99.99,,2013-07-30 19:00:00,
2013-07-30 19:44:00,72.0,-99.9,30.14,South,180,8.0,-999.0,-999,-99.99,,,-99.99,,2013-07-30 19:44:00,
2013-07-30 19:53:00,72.0,-99.9,30.14,South,180,8.0,-999.0,-999,-99.99,,,-99.99,,2013-07-30 19:53:00,
2013-07-30 20:00:00,72.0,-99.9,30.13,South,190,10.0,-999.0,-999,-99.99,,,-99.99,,2013-07-30 20:00:00,
2013-07-30 20:33:00,72.0,-99.9,30.13,South,190,10.0,-999.0,-999,-99.99,,,-99.99,,2013-07-30 20:33:00,
2013-07-30 20:43:00,72.0,-99.9,30.13,South,190,10.0,-999.0,-999,-99.99,,,-99.99,,2013-07-30 20:43:00,
2013-07-30 20:52:00,72.0,-99.9,30.13,South,190,10.0,-999.0,-999,-99.99,,,-99.99,,2013-07-30 20:52:00,
2013-07-30 21:00:00,72.0,-99.9,30.12,SSW,200,9.0,-999.0,-999,-99.99,,,-99.99,,2013-07-30 21:00:00,
2013-07-30 21:32:00,72.0,-99.9,30.12,SSW,200,9.0,-999.0,-999,-99.99,,,-99.99,,2013-07-30 21:32:00,
2013-07-30 21:42:00,72.0,-99.9,30.12,SSW,200,9.0,-999.0,-999,-99.99,,,-99.99,,2013-07-30 21:42:00,
2013-07-30 21:53:00,72.0,-99.9,30.12,SSW,200,9.0,-999.0,-999,-99.99,,,-99.99,,2013-07-30 21:53:00,
2013-07-30 22:00:00,71.0,-99.9,30.12,South,190,10.0,-999.0,-999,-99.99,,,-99.99,,2013-07-30 22:00:00,
2013-07-30 22:32:00,71.0,-99.9,30.12,South,190,10.0,-999.0,-999,-99.99,,,-99.99,,2013-07-30 22:32:00,
2013-07-30 22:43:00,71.0,-99.9,30.12,South,190,10.0,-999.0,-999,-99.99,,,-99.99,,2013-07-30 22:43:00,
2013-07-30 22:53:00,71.0,-99.9,30.12,South,190,10.0,-999.0,-999,-99.99,,,-99.99,,2013-07-30 22:53:00,
2013-07-30 23:00:00,71.0,-99.9,30.11,SSE,150,10.0,-999.0,-999,-99.99,,,-99.99,,2013-07-30 23:00:00,
2013-07-30 23:32:00,71.0,-99.9,30.11,SSE,150,10.0,-999.0,-999,-99.99,,,-99.99,,2013-07-30 23:32:00,
2013-07-30 23:42:00,71.0,-99.9,30.11,SSE,150,10.0,-999.0,-999,-99.99,,,-99.99,,2013-07-30 23:42:00,
2013-07-30 23:53:00,71.0,-99.9,30.11,SSE,150,10.0,-999.0,-999,-99.99,,,-99.99,,2013-07-30 23:53:00,